Location: ??????
(41.3164°N, 22.6615°E)
Time: 01:41:37
(UTC+00:00)

STRAND 1 - Pass Details

Date: 03 July 2022
Orbit: 767 x 781 km, 98.4° (Epoch: 08 August)

Event Time Altitude Azimuth Distance (km) Brightness Sun altitude
Rises 18:32:21 0° 1° (N) 3,267 ? -4.9°
Reaches altitude 10° 18:34:57 10° 350° (N) 2,332 ? -5.3°
Maximum altitude 18:39:13 27° 294° (WNW) 1,448 ? -5.9°
Drops below altitude 10° 18:43:28 10° 237° (WSW) 2,311 ? -6.6°
Sets 18:46:03 0° 226° (SW) 3,232 ? -6.9°
